When you browse on this site, cookies collect data to enhance your experience and personalize the content and advertising you see.
Visit our Privacy Policy to learn more. By continuing to use the site, you agree to this use of cookies and data.
  • In Slovakia
  • List of Countries
  • For 7 days
  • Water Temperature
  • Weather Map
  • Weather Widgets
  • user-avatar
    Login

    Hourly Weather Abomey

    Today, 21 November, Thursday

    Time Temperature Precipitation Wind Pressure Humidity
    00:00 +27°C° 0 mm 2 mps 738 mmHg 86%
    01:00 +26°C° 0.1 mm 2 mps 737 mmHg 87%
    02:00 +26°C° 0.1 mm 1 mps 737 mmHg 89%
    03:00 +26°C° 0.1 mm 1 mps 737 mmHg 90%
    04:00 +26°C° 0 mm 1 mps 737 mmHg 91%
    05:00 +26°C° 0 mm 2 mps 737 mmHg 91%
    06:00 +25°C° 0 mm 1 mps 738 mmHg 92%
    07:00 +27°C° 0 mm 1 mps 738 mmHg 84%
    08:00 +29°C° 0 mm 2 mps 738 mmHg 77%
    09:00 +31°C° 0 mm 2 mps 739 mmHg 69%
    10:00 +31°C° 0 mm 2 mps 738 mmHg 66%
    11:00 +32°C° 0 mm 2 mps 738 mmHg 62%
    12:00 +34°C° 0 mm 2 mps 738 mmHg 59%
    13:00 +34°C° 0 mm 1 mps 737 mmHg 54%
    14:00 +34°C° 0 mm 1 mps 736 mmHg 50%
    15:00 +33°C° 0 mm 0 mps 736 mmHg 46%
    16:00 +33°C° 0 mm 1 mps 736 mmHg 52%
    17:00 +31°C° 0 mm 2 mps 737 mmHg 59%
    18:00 +30°C° 0 mm 2 mps 737 mmHg 65%
    19:00 +29°C° 0 mm 3 mps 737 mmHg 68%
    20:00 +28°C° 0 mm 3 mps 738 mmHg 71%
    21:00 +27°C° 0 mm 3 mps 738 mmHg 73%
    22:00 +26°C° 0 mm 3 mps 738 mmHg 76%
    23:00 +26°C° 0 mm 2 mps 738 mmHg 79%

    Tomorrow, 22 November, Friday

    Time Temperature Precipitation Wind Pressure Humidity
    00:00 +26°C° 0 mm 2 mps 738 mmHg 82%
    01:00 +26°C° 0 mm 2 mps 738 mmHg 84%
    02:00 +25°C° 0 mm 2 mps 737 mmHg 85%
    03:00 +25°C° 0 mm 2 mps 737 mmHg 87%
    04:00 +25°C° 0 mm 2 mps 737 mmHg 89%
    05:00 +25°C° 0 mm 1 mps 737 mmHg 91%
    06:00 +25°C° 0 mm 1 mps 738 mmHg 93%
    07:00 +26°C° 0 mm 2 mps 738 mmHg 87%
    08:00 +28°C° 0 mm 2 mps 739 mmHg 81%
    09:00 +29°C° 0 mm 3 mps 740 mmHg 74%
    10:00 +30°C° 0 mm 3 mps 739 mmHg 71%
    11:00 +31°C° 0 mm 3 mps 739 mmHg 68%
    12:00 +33°C° 0 mm 3 mps 738 mmHg 66%
    13:00 +33°C° 0 mm 3 mps 738 mmHg 65%
    14:00 +32°C° 0 mm 2 mps 737 mmHg 65%
    15:00 +32°C° 0 mm 2 mps 737 mmHg 64%
    16:00 +31°C° 0.4 mm 2 mps 737 mmHg 70%
    17:00 +29°C° 0.4 mm 2 mps 737 mmHg 76%
    18:00 +28°C° 0.4 mm 2 mps 738 mmHg 82%
    19:00 +27°C° 0 mm 2 mps 738 mmHg 83%
    20:00 +27°C° 0 mm 2 mps 738 mmHg 85%
    21:00 +26°C° 0 mm 1 mps 739 mmHg 87%
    22:00 +26°C° 0 mm 1 mps 739 mmHg 87%
    23:00 +26°C° 0 mm 1 mps 738 mmHg 88%

    Day after tomorrow, 23 November, Saturday

    Time Temperature Precipitation Wind Pressure Humidity
    00:00 +26°C° 0 mm 2 mps 738 mmHg 88%
    01:00 +25°C° 0 mm 1 mps 738 mmHg 89%
    02:00 +25°C° 0 mm 1 mps 737 mmHg 90%
    03:00 +25°C° 0 mm 1 mps 737 mmHg 92%
    04:00 +25°C° 0 mm 1 mps 737 mmHg 92%
    05:00 +25°C° 0 mm 1 mps 737 mmHg 93%
    06:00 +22°C° 0 mm 0 mps 738 mmHg 94%
    07:00 +26°C° 0 mm 1 mps 738 mmHg 87%
    08:00 +28°C° 0 mm 1 mps 739 mmHg 80%
    09:00 +30°C° 0 mm 2 mps 739 mmHg 73%
    10:00 +31°C° 0 mm 2 mps 739 mmHg 68%
    11:00 +32°C° 0 mm 2 mps 738 mmHg 64%
    12:00 +34°C° 0 mm 2 mps 738 mmHg 59%
    13:00 +34°C° 0 mm 2 mps 737 mmHg 58%
    14:00 +34°C° 0 mm 2 mps 737 mmHg 56%
    15:00 +33°C° 0 mm 1 mps 736 mmHg 54%
    16:00 +32°C° 0 mm 2 mps 736 mmHg 60%
    17:00 +31°C° 0 mm 2 mps 737 mmHg 65%
    18:00 +29°C° 0 mm 2 mps 737 mmHg 70%
    19:00 +28°C° 0 mm 2 mps 737 mmHg 75%
    20:00 +28°C° 0 mm 2 mps 738 mmHg 79%
    21:00 +27°C° 0 mm 3 mps 738 mmHg 83%
    22:00 +26°C° 0 mm 2 mps 738 mmHg 84%
    23:00 +26°C° 0 mm 2 mps 738 mmHg 85%

    24 November, Sunday

    Time Temperature Precipitation Wind Pressure Humidity
    00:00 +26°C° 0 mm 2 mps 738 mmHg 87%
    01:00 +25°C° 0 mm 1 mps 737 mmHg 88%
    02:00 +25°C° 0 mm 1 mps 737 mmHg 90%
    03:00 +25°C° 0 mm 1 mps 737 mmHg 91%
    04:00 +25°C° 0 mm 1 mps 737 mmHg 92%
    05:00 +25°C° 0 mm 1 mps 737 mmHg 93%
    06:00 +25°C° 0 mm 1 mps 738 mmHg 94%
    07:00 +26°C° 0 mm 1 mps 738 mmHg 86%
    08:00 +28°C° 0 mm 2 mps 738 mmHg 79%
    09:00 +30°C° 0 mm 2 mps 739 mmHg 72%
    10:00 +30°C° 0 mm 2 mps 739 mmHg 70%
    11:00 +31°C° 0 mm 2 mps 738 mmHg 67%
    12:00 +32°C° 0 mm 2 mps 738 mmHg 65%
    13:00 +32°C° 0 mm 2 mps 737 mmHg 63%
    14:00 +32°C° 0 mm 2 mps 737 mmHg 62%
    15:00 +32°C° 0 mm 1 mps 736 mmHg 61%
    16:00 +31°C° 0.1 mm 2 mps 736 mmHg 66%
    17:00 +30°C° 0.1 mm 2 mps 737 mmHg 72%
    18:00 +29°C° 0.1 mm 2 mps 737 mmHg 77%
    19:00 +28°C° 0.1 mm 2 mps 737 mmHg 80%
    20:00 +27°C° 0.1 mm 2 mps 737 mmHg 83%
    21:00 +27°C° 0.1 mm 2 mps 738 mmHg 86%
    22:00 +26°C° 0 mm 2 mps 738 mmHg 88%
    23:00 +26°C° 0 mm 2 mps 737 mmHg 89%

    25 November, Monday

    Time Temperature Precipitation Wind Pressure Humidity
    00:00 +26°C° 0 mm 1 mps 737 mmHg 91%
    01:00 +25°C° 0 mm 1 mps 737 mmHg 92%
    02:00 +25°C° 0 mm 1 mps 737 mmHg 93%
    03:00 +25°C° 0 mm 1 mps 736 mmHg 94%
    04:00 +25°C° 0 mm 1 mps 737 mmHg 95%
    05:00 +24°C° 0 mm 1 mps 737 mmHg 96%
    06:00 +24°C° 0 mm 1 mps 738 mmHg 97%
    07:00 +26°C° 0 mm 1 mps 738 mmHg 88%
    08:00 +28°C° 0 mm 2 mps 738 mmHg 80%
    09:00 +30°C° 0 mm 2 mps 739 mmHg 72%
    10:00 +31°C° 0 mm 2 mps 738 mmHg 65%
    11:00 +34°C° 0 mm 2 mps 738 mmHg 59%
    12:00 +34°C° 0 mm 1 mps 737 mmHg 53%
    13:00 +35°C° 0 mm 2 mps 737 mmHg 52%
    14:00 +35°C° 0 mm 2 mps 736 mmHg 51%
    15:00 +35°C° 0 mm 2 mps 736 mmHg 50%
    16:00 +32°C° 0 mm 2 mps 736 mmHg 58%
    17:00 +31°C° 0 mm 2 mps 736 mmHg 66%
    18:00 +29°C° 0 mm 2 mps 736 mmHg 74%
    19:00 +28°C° 0 mm 3 mps 737 mmHg 77%
    20:00 +28°C° 0 mm 3 mps 737 mmHg 80%
    21:00 +27°C° 0 mm 3 mps 738 mmHg 84%
    22:00 +27°C° 0 mm 3 mps 738 mmHg 85%
    23:00 +26°C° 0 mm 2 mps 737 mmHg 87%

    26 November, Tuesday

    Time Temperature Precipitation Wind Pressure Humidity
    00:00 +26°C° 0 mm 2 mps 737 mmHg 89%
    01:00 +26°C° 0 mm 2 mps 737 mmHg 90%
    02:00 +25°C° 0 mm 1 mps 737 mmHg 92%
    03:00 +25°C° 0 mm 1 mps 736 mmHg 93%
    04:00 +25°C° 0 mm 1 mps 737 mmHg 94%
    05:00 +25°C° 0 mm 1 mps 737 mmHg 95%
    06:00 +24°C° 0 mm 1 mps 737 mmHg 95%
    07:00 +26°C° 0 mm 1 mps 738 mmHg 87%
    08:00 +28°C° 0 mm 2 mps 738 mmHg 78%
    09:00 +30°C° 0 mm 2 mps 739 mmHg 69%
    10:00 +32°C° 0 mm 2 mps 738 mmHg 62%
    11:00 +33°C° 0 mm 1 mps 738 mmHg 55%
    12:00 +35°C° 0 mm 1 mps 737 mmHg 47%
    13:00 +35°C° 0 mm 1 mps 737 mmHg 44%
    14:00 +35°C° 0 mm 1 mps 736 mmHg 41%
    15:00 +36°C° 0 mm 1 mps 735 mmHg 38%
    16:00 +35°C° 0 mm 2 mps 736 mmHg 48%
    17:00 +32°C° 0 mm 2 mps 736 mmHg 57%
    18:00 +30°C° 0 mm 2 mps 736 mmHg 66%
    19:00 +29°C° 0.1 mm 3 mps 737 mmHg 73%
    20:00 +28°C° 0.1 mm 3 mps 737 mmHg 79%
    21:00 +27°C° 0.1 mm 3 mps 738 mmHg 85%
    22:00 +27°C° 0 mm 3 mps 738 mmHg 86%
    23:00 +27°C° 0 mm 3 mps 737 mmHg 87%
    Show more